sat.trackr.live / text

‹ back to catalog

FLOCK 4H-9

NORAD 66712 · 2025-276AY

PAYLOAD ACTIVE UNKNOWN

§ Identity

Operator
Country
US
Launch date
2025-11-28
Launch site
AFWTR
Launch vehicle
Mass (kg)
RCS (m²)

Purposes: earth_obs

External: N2YO · Heavens-Above · Gunter

§ Orbital elements

Epoch: 2026-09-18T03:54:03.370464Z

Period
94.64 min
Inclination
97.4137°
Eccentricity
0.0003760
Mean motion
15.21525252 rev/d
Perigee alt
498.7 km
Apogee alt
503.8 km
Semi-major
6,879.4 km
B*
2.0639e-4
RAAN
333.4974°
Arg perigee
39.1665°
Mean anomaly
320.9843°
Rev number
4,456

§ Raw data

FLOCK 4H-91 66712U 25276AY  26261.16253901  .00004578  00000+0  20639-3 0  99942 66712  97.4137 333.4974 0003760  39.1665 320.9843 15.21525252 44562

JSON: /api/v1/satellites/66712 · /tle

For live sub-satellite position, see the globe view (requires WebGL).

§ Visibility from observer

Set your observer location to see the next 7 days of passes ≥ 10°. The values pass through the URL so the page stays shareable.

No JS? Fill the form by hand. The geolocation button needs JavaScript.